[[{"header":{"parameterUnit":"m.s-1","parameterCategory":2,"la1":30.2991,"la2":30.254,"lo1":-89.0895,"lo2":-89.0444,"dy":0.0017,"dx":0.0017,"nx":28,"ny":28,"refTime":"2025-11-12T09:00:00:Z","depth":"0","parameterNumber":2,"parameterNumberName":"U-component_of_CURRENTS"},"data":[0,0,0,0,0,0,0,0,0,0,0,0,0,0,0,0,0,0,0,0,0,0,0,0,0,0,0,0,0,0,0,0,0,0,0,0,0,0,0,0,0,0,0,0,0,0,0,0,0,0,0,0,0,0,0,0,0,0,0.2746,0.2746,0,0.2698,0.2698,0.2697,0.2693,0.2694,0.2695,0.2695,0.2721,0.2721,0.2721,0,0,0,0,0,0,0,0,0,0,0,0,0,0.2846,0.2844,0.2746,0.2746,0.2745,0.2699,0.2698,0.2697,0.2693,0.2694,0.2695,0.2695,0.2721,0.2721,0.2721,0,0,0,0,0,0,0,0,0,0,0,0,0,0.2799,0.2843,0.2746,0.2739,0.2738,0.2699,0.2698,0.2697,0.2693,0.2694,0.2695,0.2696,0.2721,0.2721,0.2721,0.2702,0,0,0.2721,0.2721,0,0,0,0,0,0,0,0,0.2802,0.2795,0.2741,0.2739,0.2738,0.2704,0.2742,0.2703,0.2693,0.2708,0.2695,0.2696,0.2722,0.2722,0.2708,0.2703,0.2704,0.2721,0.2721,0.2721,0.2721,0,0,0,0,0,0,0,0.2805,0.2798,0.2726,0.274,0.2739,0.2742,0.2736,0.2734,0.2711,0.2707,0.2707,0.2704,0.2722,0.2708,0.2709,0.2704,0.2721,0.2721,0.2721,0.2721,0.2753,0.2753,0,0,0,0,0,0,0.2812,0.28,0.2727,0.2725,0.2775,0.274,0.2733,0.2713,0.2709,0.2709,0.2703,0.2704,0.2707,0.2709,0.271,0.272,0.2721,0.2721,0.2721,0.2752,0.2753,0.2754,0,0,0,0,0,0,0.2814,0.2805,0.2729,0.2764,0.2755,0.2737,0.2714,0.2711,0.2702,0.2705,0.2707,0.2697,0.2708,0.271,0.2717,0.272,0.2721,0.2721,0.2751,0.2752,0.2753,0.2719,0,0,0,0,0,0,0.2817,0.2806,0.2792,0.2764,0.2753,0.2703,0.2713,0.271,0.2699,0.2699,0.2701,0.2704,0.2709,0.2716,0.2717,0.272,0.2722,0.275,0.2751,0.2753,0.2719,0.2719,0.2719,0,0,0,0,0,0.282,0.2792,0.2791,0.2783,0.2735,0.2703,0.2697,0.2688,0.2697,0.2684,0.2697,0.2704,0.2727,0.2716,0.2717,0.272,0.2749,0.2751,0.2753,0.2719,0.2719,0.2719,0,0,0,0,0,0,0.2824,0.2788,0.2787,0.2748,0.273,0.2703,0.2685,0.2687,0.2682,0.2688,0.27,0.2703,0.2718,0.2725,0.2713,0.2738,0.2744,0.2746,0.2719,0.2719,0.2719,0.271,0.2722,0,0,0,0,0,0.282,0.2789,0.2765,0.2735,0.2723,0.2707,0.2694,0.269,0.2683,0.2681,0.2684,0.2701,0.2722,0.2725,0.2739,0.2737,0.2761,0.2747,0.2747,0.2746,0.2743,0.2796,0.28,0.2759,0.2759,0.2759,0,0,0.2812,0.279,0.2772,0.2734,0.2716,0.2691,0.27,0.2676,0.2665,0.2686,0.2673,0.2698,0.2725,0.2732,0.2739,0.2737,0.2769,0.2748,0.2747,0.2744,0.2798,0.2802,0.2805,0.2761,0.276,0.276,0,0,0.2782,0.2762,0.2729,0.2711,0.2686,0.2677,0.2673,0.2649,0.2648,0.264,0.2669,0.2693,0.2701,0.2724,0.2739,0.2746,0.2771,0.2758,0.2738,0.279,0.2793,0.2797,0.2819,0.2825,0.2751,0.2751,0.2751,0,0.278,0.2733,0.2716,0.2685,0.2671,0.2672,0.2645,0.2637,0.2624,0.2629,0.2636,0.2678,0.2698,0.2727,0.2733,0.2743,0.277,0.2732,0.2788,0.2792,0.2796,0.2818,0.2825,0.275,0.275,0.275,0.275,0,0.2726,0.2696,0.2674,0.2637,0.2621,0.2596,0.2589,0.2583,0.2591,0.2593,0.2619,0.2649,0.2676,0.2694,0.2712,0.2755,0.2763,0.2785,0.2783,0.2798,0.2821,0.2828,0.2748,0.2748,0.2749,0.2749,0,0,0.2703,0.2649,0.2643,0.2626,0.2597,0.2578,0.2566,0.2557,0.2558,0.2566,0.2574,0.2618,0.2642,0.2663,0.2697,0.274,0.2788,0.277,0.2773,0.278,0.2887,0.2724,0.2717,0.2825,0.2826,0.2828,0.2886,0,0.267,0.2614,0.2596,0.2554,0.2527,0.2529,0.2519,0.2518,0.2526,0.2532,0.2578,0.2598,0.2628,0.2648,0.2694,0.2773,0.2809,0.2769,0.2882,0.2884,0.2729,0.272,0.2556,0.2579,0.2893,0.2895,0.2896,0,0.2621,0.2595,0.2549,0.2521,0.2511,0.2491,0.2486,0.2477,0.2494,0.2504,0.2531,0.2562,0.2619,0.2647,0.2768,0.2744,0.2809,0.2865,0.2869,0.2732,0.2734,0.2621,0.2581,0.245,0.2907,0.2907,0.2906,0,0.2611,0.2561,0.253,0.2516,0.2486,0.2477,0.2467,0.247,0.2466,0.2487,0.2489,0.2555,0.2586,0.2687,0.2771,0.2789,0.2896,0.2937,0.2848,0.2837,0.2724,0.2699,0.2558,0.3023,0.3022,0.3022,0.3022,0,0.2579,0.2552,0.2523,0.2505,0.2479,0.2464,0.2443,0.2445,0.2447,0.2438,0.2476,0.2482,0.2604,0.2663,0.2762,0.2795,0.2887,0.283,0.2837,0.2703,0.2677,0.2578,0.2554,0.3024,0.3024,0.3024,0.3023,0,0.2562,0.2541,0.2506,0.2478,0.2468,0.2451,0.2419,0.2407,0.2412,0.2402,0.2407,0.2443,0.2501,0.2591,0.2738,0.2749,0.2714,0.2819,0.2622,0.2602,0.2354,0.2335,0.2192,0.2156,0.2727,0.2723,0.272,0,0.2541,0.2522,0.2491,0.2474,0.2457,0.2428,0.2408,0.2394,0.2377,0.2372,0.2368,0.2394,0.241,0.2502,0.2519,0.2595,0.2575,0.2467,0.2456,0.2282,0.2271,0.2234,0.2215,0.2312,0.2306,0.2301,0.2297,0,0.2515,0.251,0.2492,0.246,0.2431,0.2396,0.2363,0.2345,0.2327,0.2315,0.2299,0.2309,0.2309,0.2256,0.2276,0.2321,0.227,0.2358,0.2258,0.197,0.1849,0.1836,0.2324,0.2251,0.2256,0.2259,0.2261,0.2263,0.2503,0.2491,0.2472,0.2441,0.2409,0.2367,0.2323,0.2296,0.2262,0.2212,0.2238,0.2189,0.2054,0.2036,0.2026,0.1803,0.1955,0.1758,0.1766,0.1758,0.1639,0.1977,0.1852,0.1854,0.1856,0.1858,0.1859,0,0.2477,0.247,0.2449,0.2403,0.2361,0.2349,0.2292,0.2234,0.218,0.2127,0.2098,0.1892,0.1736,0.1605,0.1344,0.1235,0.126,0.1188,0.1129,0.1165,0.1524,0.1414,0.1089,0.1089,0.1089,0.1089,0.1089,0.1089,0.2461,0.244,0.2433,0.2367,0.2332,0.224,0.22,0.2116,0.2048,0.1864,0.171,0.1642,0.1382,0.101,0.074,0.0738,0.0718,0.0632,0.0732,0.0976,0.1032,0.1085,0.0972,0.0559,0.0559,0.0322,0.0319,0.0317]},{"header":{"parameterUnit":"m.s-1","parameterCategory":2,"la1":30.2991,"la2":30.254,"lo1":-89.0895,"lo2":-89.0444,"dy":0.0017,"dx":0.0017,"nx":28,"ny":28,"refTime":"2025-11-12T09:00:00:Z","depth":"0","parameterNumber":3,"parameterNumberName":"V-component_of_CURRENTS"},"data":[0,0,0,0,0,0,0,0,0,0,0,0,0,0,0,0,0,0,0,0,0,0,0,0,0,0,0,0,0,0,0,0,0,0,0,0,0,0,0,0,0,0,0,0,0,0,0,0,0,0,0,0,0,0,0,0,0,0,0.0157,0.0157,0,0.0253,0.0255,0.0256,0.0289,0.0289,0.0288,0.0288,0.0378,0.0381,0.0384,0,0,0,0,0,0,0,0,0,0,0,0,0,0.0052,0.0053,0.0156,0.0157,0.0159,0.0253,0.0255,0.0256,0.0289,0.0289,0.0288,0.0287,0.0377,0.038,0.0384,0,0,0,0,0,0,0,0,0,0,0,0,0,0.0119,0.0054,0.0156,0.0185,0.0189,0.0253,0.0255,0.0257,0.0289,0.0289,0.0288,0.0287,0.0376,0.038,0.0384,0.0428,0,0,0.0398,0.04,0,0,0,0,0,0,0,0,0.0115,0.0123,0.018,0.0183,0.0187,0.0257,0.0251,0.0313,0.029,0.0253,0.0288,0.0287,0.0336,0.0344,0.0367,0.0432,0.0436,0.0398,0.0401,0.0403,0.0404,0,0,0,0,0,0,0,0.0111,0.012,0.0197,0.0181,0.0185,0.0211,0.0219,0.0263,0.0299,0.0256,0.0258,0.0267,0.0338,0.0362,0.0369,0.0437,0.0398,0.0402,0.0405,0.0406,0.0599,0.0602,0,0,0,0,0,0,0.0094,0.0115,0.0194,0.0199,0.0147,0.0213,0.0223,0.0237,0.0299,0.0307,0.0267,0.0268,0.0355,0.0364,0.0372,0.0466,0.0403,0.0407,0.0409,0.0597,0.06,0.0603,0,0,0,0,0,0,0.0091,0.01,0.019,0.0158,0.017,0.0215,0.0231,0.0239,0.0262,0.0307,0.0315,0.0281,0.0355,0.0366,0.0435,0.0468,0.0409,0.0413,0.0594,0.0598,0.0601,0.063,0,0,0,0,0,0,0.0088,0.0099,0.0105,0.0157,0.0172,0.0236,0.0232,0.0242,0.0267,0.0269,0.0322,0.0329,0.0355,0.0428,0.0439,0.0473,0.0416,0.0591,0.0596,0.06,0.0626,0.0634,0.0641,0,0,0,0,0,0.0084,0.0098,0.0105,0.0114,0.0178,0.0236,0.0248,0.0277,0.0268,0.0291,0.0335,0.0328,0.0465,0.0434,0.0446,0.0482,0.0589,0.0594,0.06,0.0622,0.0632,0.0641,0,0,0,0,0,0,0.0047,0.0104,0.0113,0.014,0.0186,0.0241,0.0262,0.0277,0.0329,0.0329,0.0362,0.0375,0.0448,0.0467,0.0431,0.0555,0.0525,0.0534,0.0538,0.0548,0.0556,0.0543,0.042,0,0,0,0,0,0.0043,0.0074,0.0126,0.0148,0.017,0.0214,0.0238,0.0262,0.0311,0.0331,0.0372,0.0423,0.0484,0.0514,0.0567,0.0633,0.0619,0.0666,0.0674,0.068,0.0681,0.0689,0.0696,0.0621,0.0621,0.0621,0,0,0.0034,0.0068,0.0085,0.0143,0.0178,0.0232,0.0228,0.0271,0.032,0.0334,0.0412,0.0451,0.0508,0.0589,0.0623,0.0606,0.0696,0.0687,0.0692,0.0689,0.0696,0.0702,0.0708,0.0625,0.0624,0.0624,0,0,0.0045,0.0063,0.01,0.0144,0.02,0.0238,0.0248,0.0312,0.0343,0.0423,0.0449,0.0507,0.0598,0.0649,0.0684,0.0767,0.0737,0.0784,0.0814,0.0822,0.0827,0.0831,0.0818,0.082,0.0788,0.0788,0.0788,0,0.0026,0.0087,0.0119,0.017,0.0208,0.0241,0.0294,0.0341,0.0421,0.0453,0.0452,0.0589,0.063,0.0727,0.0762,0.0783,0.077,0.0768,0.0828,0.0832,0.0835,0.082,0.0823,0.079,0.079,0.0789,0.0789,0,0.008,0.0126,0.0151,0.0232,0.0276,0.0326,0.0391,0.0439,0.0473,0.0517,0.0609,0.067,0.0743,0.0774,0.0798,0.0861,0.0836,0.0831,0.0791,0.0844,0.0826,0.0828,0.0793,0.0792,0.0791,0.0791,0,0,0.004,0.0165,0.0173,0.0222,0.0312,0.0354,0.0436,0.052,0.0563,0.0636,0.0697,0.0805,0.081,0.0852,0.0882,0.0899,0.0918,0.0877,0.0877,0.0841,0.0915,0.0897,0.0897,0.0912,0.0913,0.0913,0.0887,0,0.0072,0.0179,0.0234,0.0329,0.0388,0.0444,0.0517,0.0589,0.0644,0.0711,0.0768,0.0837,0.0849,0.0876,0.0901,0.0926,0.0926,0.0924,0.0889,0.0888,0.0847,0.0901,0.0882,0.0857,0.0889,0.0889,0.0889,0,0.011,0.0179,0.0282,0.0388,0.0415,0.0471,0.0569,0.0638,0.073,0.0767,0.0829,0.0865,0.0936,0.0915,0.0961,0.0955,0.0934,0.0934,0.0932,0.0906,0.0875,0.0815,0.0859,0.0864,0.0892,0.0892,0.0892,0,0.0085,0.0207,0.0289,0.033,0.0456,0.0498,0.0555,0.0649,0.0701,0.0787,0.0823,0.0899,0.0938,0.0944,0.0964,0.0954,0.0983,0.0965,0.0922,0.0919,0.0893,0.0887,0.0919,0.0961,0.0961,0.0961,0.0961,0,0.0107,0.0168,0.028,0.0327,0.04,0.0484,0.0555,0.062,0.0705,0.0762,0.0835,0.0889,0.0943,0.0976,0.0969,0.0966,0.0984,0.0934,0.092,0.0904,0.0899,0.0893,0.0907,0.096,0.096,0.096,0.096,0,0.0081,0.0164,0.025,0.0367,0.0396,0.0442,0.0537,0.0588,0.067,0.0743,0.0769,0.0881,0.0937,0.0975,0.0992,0.0972,0.0971,0.0945,0.0917,0.0901,0.0861,0.0877,0.0891,0.0927,0.0893,0.0893,0.0892,0,0.0093,0.0137,0.0247,0.0284,0.0335,0.0406,0.0456,0.0553,0.0605,0.0737,0.0771,0.0859,0.0932,0.0973,0.0964,0.095,0.0959,0.0889,0.0875,0.0868,0.0876,0.0882,0.0913,0.0845,0.0844,0.0843,0.0843,0,0.0094,0.0124,0.0188,0.0255,0.0308,0.0373,0.0447,0.0484,0.0601,0.0673,0.0774,0.0845,0.0913,0.094,0.0935,0.0908,0.0911,0.0874,0.0884,0.0862,0.0856,0.088,0.0838,0.0837,0.0838,0.0838,0.0839,0.0839,0.0074,0.0102,0.0173,0.0232,0.0287,0.0348,0.0396,0.0478,0.0564,0.0702,0.0754,0.0886,0.0919,0.0938,0.0903,0.0839,0.0872,0.0805,0.0827,0.0835,0.0874,0.0814,0.0791,0.0791,0.0792,0.0792,0.0792,0,0.0052,0.0095,0.0149,0.0228,0.0275,0.0314,0.0404,0.0466,0.0563,0.0701,0.0801,0.091,0.0921,0.092,0.0838,0.08,0.0804,0.079,0.0802,0.084,0.079,0.0792,0.075,0.075,0.075,0.075,0.075,0.075,0.0047,0.009,0.0127,0.0204,0.0254,0.0324,0.0375,0.047,0.0585,0.0746,0.0865,0.0961,0.0961,0.0867,0.0804,0.079,0.084,0.0801,0.0862,0.0819,0.0822,0.0825,0.083,0.0797,0.0797,0.0903,0.0903,0.0904]}],[{"header":{"parameterUnit":"m.s-1","parameterCategory":2,"la1":30.2991,"la2":30.254,"lo1":-89.0895,"lo2":-89.0444,"dy":0.0017,"dx":0.0017,"nx":28,"ny":28,"refTime":"2025-11-12T09:00:00:Z","depth":"2","parameterNumber":2,"parameterNumberName":"U-component_of_CURRENTS"},"data":[0,0,0,0,0,0,0,0,0,0,0,0,0,0,0,0,0,0,0,0,0,0,0,0,0,0,0,0,0,0,0,0,0,0,0,0,0,0,0,0,0,0,0,0,0,0,0,0,0,0,0,0,0,0,0,0,0,0,0.0998,0.0998,0,0.0985,0.0985,0.0985,0.0987,0.0987,0.0987,0.0988,0.1019,0.102,0.102,0,0,0,0,0,0,0,0,0,0,0,0,0,0.1052,0.105,0.0998,0.0998,0.0998,0.0985,0.0985,0.0985,0.0987,0.0987,0.0987,0.0988,0.1019,0.1019,0.102,0,0,0,0,0,0,0,0,0,0,0,0,0,0.1032,0.105,0.0998,0.0998,0.0998,0.0985,0.0985,0.0985,0.0987,0.0987,0.0987,0.0988,0.1019,0.1019,0.102,0.1017,0,0,0.1023,0.1023,0,0,0,0,0,0,0,0,0.1033,0.103,0.0998,0.0998,0.0998,0.0989,0.1015,0.0998,0.0986,0.099,0.0988,0.0988,0.1013,0.1014,0.1009,0.1018,0.1019,0.1023,0.1023,0.1024,0.1024,0,0,0,0,0,0,0,0.1034,0.103,0.0992,0.0998,0.0998,0.1008,0.1005,0.1012,0.0999,0.099,0.099,0.099,0.1013,0.1008,0.101,0.102,0.1023,0.1024,0.1024,0.1024,0.1096,0.1098,0,0,0,0,0,0,0.1035,0.1031,0.0993,0.0992,0.1018,0.1007,0.1004,0.0991,0.0998,0.1,0.0989,0.099,0.1007,0.1009,0.1011,0.1069,0.1024,0.1025,0.1025,0.1095,0.1097,0.1098,0,0,0,0,0,0,0.1036,0.1031,0.0993,0.1013,0.1009,0.1005,0.0991,0.099,0.0998,0.0998,0.1,0.1,0.1007,0.101,0.1031,0.1068,0.1025,0.1026,0.1093,0.1095,0.1097,0.1146,0,0,0,0,0,0,0.1037,0.1031,0.1032,0.1012,0.1008,0.0995,0.099,0.099,0.0997,0.0998,0.1007,0.101,0.1008,0.103,0.1032,0.1069,0.1026,0.1091,0.1094,0.1097,0.1143,0.115,0.1155,0,0,0,0,0,0.1039,0.1031,0.1031,0.1027,0.1004,0.0995,0.0994,0.0993,0.0997,0.1002,0.1012,0.101,0.1049,0.1031,0.1034,0.1071,0.109,0.1093,0.1097,0.114,0.1148,0.1155,0,0,0,0,0,0,0.1056,0.103,0.103,0.1015,0.1013,0.0996,0.1,0.1001,0.101,0.1016,0.1018,0.1021,0.1056,0.1055,0.1036,0.1101,0.1074,0.1077,0.1106,0.1114,0.112,0.1091,0.1027,0,0,0,0,0,0.1059,0.1045,0.1031,0.1023,0.1021,0.1015,0.1015,0.1013,0.1015,0.1019,0.1027,0.1044,0.1068,0.1083,0.1094,0.1124,0.1135,0.1153,0.116,0.1165,0.1144,0.1231,0.1244,0.1108,0.1108,0.1108,0,0,0.1062,0.1049,0.1041,0.1026,0.1022,0.1018,0.1016,0.1016,0.1021,0.1022,0.1038,0.1061,0.1079,0.1115,0.1132,0.1121,0.1207,0.1169,0.1174,0.1149,0.1236,0.1249,0.1261,0.1111,0.111,0.111,0,0,0.1058,0.1051,0.1039,0.1037,0.1034,0.103,0.1035,0.1028,0.1037,0.1051,0.1067,0.1107,0.1128,0.1157,0.1174,0.1221,0.1235,0.1239,0.1252,0.1339,0.1351,0.1361,0.1379,0.1391,0.1247,0.1247,0.1247,0,0.1068,0.1046,0.1038,0.1031,0.1033,0.1037,0.1034,0.104,0.1046,0.106,0.1061,0.1126,0.1145,0.1205,0.1223,0.1236,0.1266,0.1223,0.1348,0.1359,0.1369,0.1385,0.1397,0.125,0.125,0.1249,0.1249,0,0.1049,0.1044,0.104,0.103,0.1032,0.1032,0.1037,0.1051,0.1066,0.1075,0.1131,0.1165,0.1204,0.1235,0.1239,0.1328,0.1319,0.1345,0.1328,0.1385,0.1398,0.141,0.1254,0.1253,0.1252,0.1251,0,0,0.1045,0.1028,0.103,0.1029,0.1033,0.103,0.1048,0.1064,0.1083,0.1114,0.1151,0.121,0.1236,0.1256,0.1295,0.1366,0.1462,0.1384,0.1388,0.1398,0.1617,0.1351,0.1338,0.153,0.1533,0.1535,0.1593,0,0.1039,0.1021,0.1018,0.1018,0.1014,0.1029,0.1043,0.1064,0.1091,0.113,0.1189,0.1233,0.1245,0.1282,0.1358,0.1437,0.1499,0.1441,0.156,0.1562,0.1317,0.1344,0.1336,0.1364,0.1604,0.1606,0.1608,0,0.1029,0.1017,0.1009,0.1012,0.1013,0.1019,0.105,0.1062,0.1117,0.1141,0.1201,0.1241,0.1331,0.1346,0.1496,0.1466,0.1533,0.1591,0.1596,0.133,0.1317,0.1349,0.1376,0.1628,0.1626,0.1625,0.1623,0,0.1031,0.1019,0.1012,0.1012,0.1013,0.1025,0.1034,0.1072,0.1086,0.1156,0.1179,0.1283,0.1337,0.1455,0.1517,0.1544,0.1662,0.1725,0.1542,0.1524,0.152,0.1493,0.1837,0.1837,0.1837,0.1837,0.1837,0,0.1029,0.103,0.1013,0.1011,0.1012,0.1019,0.1038,0.106,0.1101,0.1119,0.1187,0.1218,0.1375,0.144,0.1527,0.1512,0.1671,0.1516,0.152,0.1528,0.1502,0.1736,0.1724,0.1839,0.1839,0.1838,0.1838,0,0.1041,0.1029,0.1023,0.1016,0.1014,0.1019,0.1026,0.1036,0.1072,0.1104,0.1125,0.1199,0.1254,0.1341,0.1505,0.1476,0.1527,0.149,0.1421,0.1409,0.1341,0.1331,0.1323,0.1314,0.1307,0.13,0.1295,0,0.1046,0.1041,0.1026,0.1017,0.1016,0.1016,0.1012,0.1028,0.1033,0.1074,0.1085,0.1129,0.1148,0.1192,0.1212,0.125,0.1339,0.1162,0.1182,0.1283,0.129,0.1292,0.1292,0.1238,0.1233,0.1229,0.1225,0,0.1057,0.1055,0.1044,0.1021,0.1011,0.0992,0.0988,0.0982,0.0996,0.1004,0.1022,0.1044,0.1053,0.1036,0.0966,0.1002,0.1142,0.1057,0.1276,0.1289,0.1186,0.1196,0.1205,0.1186,0.119,0.1193,0.1195,0.1197,0.1075,0.1065,0.1045,0.1023,0.1005,0.0973,0.0961,0.0945,0.0929,0.0932,0.0966,0.0946,0.0913,0.0787,0.0772,0.0754,0.0842,0.0834,0.0859,0.0887,0.0785,0.0665,0.055,0.055,0.055,0.055,0.055,0,0.1081,0.1066,0.1044,0.1003,0.0969,0.098,0.0945,0.0933,0.0906,0.0852,0.0872,0.0714,0.0678,0.0652,0.0596,0.053,0.0679,0.0481,0.0724,0.076,0.0793,0.0698,0.0434,0.0433,0.0433,0.0432,0,0,0.1084,0.1051,0.1026,0.097,0.0961,0.0951,0.0944,0.0883,0.0834,0.0714,0.063,0.0683,0.0622,0.0499,0.0484,0.0459,0.0621,0.0447,0.0549,0.0875,0.0908,0.1002,0.0892,0,0,0,0,0]},{"header":{"parameterUnit":"m.s-1","parameterCategory":2,"la1":30.2991,"la2":30.254,"lo1":-89.0895,"lo2":-89.0444,"dy":0.0017,"dx":0.0017,"nx":28,"ny":28,"refTime":"2025-11-12T09:00:00:Z","depth":"2","parameterNumber":3,"parameterNumberName":"V-component_of_CURRENTS"},"data":[0,0,0,0,0,0,0,0,0,0,0,0,0,0,0,0,0,0,0,0,0,0,0,0,0,0,0,0,0,0,0,0,0,0,0,0,0,0,0,0,0,0,0,0,0,0,0,0,0,0,0,0,0,0,0,0,0,0,-0.0165,-0.0166,0,-0.0197,-0.0197,-0.0198,-0.0245,-0.0246,-0.0247,-0.0248,-0.0344,-0.0345,-0.0347,0,0,0,0,0,0,0,0,0,0,0,0,0,-0.0152,-0.0152,-0.0165,-0.0166,-0.0166,-0.0197,-0.0197,-0.0198,-0.0245,-0.0246,-0.0247,-0.0248,-0.0343,-0.0345,-0.0347,0,0,0,0,0,0,0,0,0,0,0,0,0,-0.0168,-0.0152,-0.0165,-0.0194,-0.0197,-0.0197,-0.0197,-0.0198,-0.0245,-0.0246,-0.0247,-0.0248,-0.0342,-0.0345,-0.0347,-0.0337,0,0,-0.0355,-0.0356,0,0,0,0,0,0,0,0,-0.0167,-0.0168,-0.0189,-0.0192,-0.0195,-0.0219,-0.0228,-0.0248,-0.0244,-0.0226,-0.0248,-0.0249,-0.0307,-0.0313,-0.0314,-0.0341,-0.0345,-0.0356,-0.0357,-0.0358,-0.0359,0,0,0,0,0,0,0,-0.0165,-0.0167,-0.0177,-0.0189,-0.0193,-0.0207,-0.0211,-0.0232,-0.0259,-0.0227,-0.0231,-0.0235,-0.031,-0.0311,-0.0317,-0.0347,-0.0356,-0.0358,-0.0359,-0.036,-0.0396,-0.0396,0,0,0,0,0,0,-0.0161,-0.0166,-0.0176,-0.0178,-0.0185,-0.0207,-0.0211,-0.0209,-0.0258,-0.0266,-0.0234,-0.0237,-0.0306,-0.0314,-0.0321,-0.0328,-0.0358,-0.0361,-0.0362,-0.0397,-0.0396,-0.0396,0,0,0,0,0,0,-0.016,-0.0161,-0.0175,-0.0174,-0.0177,-0.0205,-0.0204,-0.0209,-0.0236,-0.0262,-0.0272,-0.0258,-0.0308,-0.0317,-0.0344,-0.0332,-0.0362,-0.0364,-0.0398,-0.0397,-0.0396,-0.0333,0,0,0,0,0,0,-0.016,-0.0161,-0.0172,-0.0173,-0.0176,-0.0184,-0.0203,-0.0209,-0.0235,-0.0241,-0.0286,-0.0294,-0.0309,-0.034,-0.0346,-0.0336,-0.0366,-0.0398,-0.0397,-0.0396,-0.0336,-0.033,-0.0325,0,0,0,0,0,-0.0159,-0.0165,-0.0172,-0.0174,-0.0186,-0.0184,-0.0187,-0.0212,-0.0235,-0.0242,-0.0268,-0.0294,-0.0337,-0.0341,-0.0349,-0.034,-0.0399,-0.0398,-0.0396,-0.0338,-0.0331,-0.0325,0,0,0,0,0,0,-0.0182,-0.0171,-0.0178,-0.0186,-0.0189,-0.0193,-0.021,-0.0222,-0.0246,-0.0263,-0.0289,-0.0299,-0.0316,-0.0338,-0.0342,-0.0346,-0.0372,-0.0372,-0.0325,-0.0319,-0.0313,-0.0291,-0.0368,0,0,0,0,0,-0.0186,-0.0182,-0.0178,-0.019,-0.0191,-0.0204,-0.0214,-0.0225,-0.024,-0.0254,-0.0279,-0.0304,-0.031,-0.0325,-0.0341,-0.0348,-0.0343,-0.0346,-0.0341,-0.0336,-0.0323,-0.0306,-0.0297,-0.0391,-0.0391,-0.0391,0,0,-0.0202,-0.0195,-0.0197,-0.0193,-0.0202,-0.0193,-0.0214,-0.023,-0.0222,-0.0261,-0.0275,-0.0292,-0.0309,-0.0308,-0.0318,-0.033,-0.0303,-0.0334,-0.033,-0.032,-0.0304,-0.0294,-0.0286,-0.039,-0.039,-0.0391,0,0,-0.0214,-0.0222,-0.0217,-0.021,-0.0216,-0.0211,-0.0218,-0.0225,-0.0233,-0.0239,-0.0256,-0.0259,-0.0292,-0.0279,-0.028,-0.0256,-0.0277,-0.0277,-0.0232,-0.0215,-0.0207,-0.02,-0.0163,-0.0153,-0.0273,-0.0273,-0.0273,0,-0.024,-0.0221,-0.0219,-0.0208,-0.0201,-0.0217,-0.0206,-0.0206,-0.0221,-0.0212,-0.0243,-0.0243,-0.0265,-0.0229,-0.0221,-0.0241,-0.0237,-0.0254,-0.0206,-0.0199,-0.0193,-0.0158,-0.0147,-0.027,-0.027,-0.0271,-0.0271,0,-0.0229,-0.0223,-0.0223,-0.0201,-0.0194,-0.0191,-0.0178,-0.0178,-0.0191,-0.0182,-0.0168,-0.018,-0.0176,-0.0181,-0.0196,-0.0157,-0.0169,-0.0201,-0.0219,-0.0179,-0.0145,-0.0135,-0.0266,-0.0267,-0.0268,-0.0268,0,0,-0.0273,-0.0222,-0.0228,-0.0203,-0.0187,-0.0175,-0.0156,-0.0126,-0.0102,-0.0115,-0.0072,-0.0078,-0.0088,-0.0088,-0.0102,-0.0085,-0.0033,-0.0127,-0.0128,-0.0082,0.0015,0.002,0.0031,-0.0068,-0.0067,-0.0065,0.0028,0,-0.0272,-0.023,-0.0208,-0.0176,-0.0151,-0.0138,-0.0108,-0.0084,-0.0071,-0.0034,-0.0025,-0.0007,-0.0051,-0.0049,-0.0034,-0.0027,-0.0009,-0.0054,-0.0037,-0.0036,-0.003,0.0042,0.0015,0.0096,0.0037,0.0039,0.004,0,-0.0272,-0.0236,-0.0198,-0.0133,-0.0123,-0.0109,-0.0053,-0.0028,0.0025,0.0037,0.0063,0.0064,0.0109,0.0048,0.0093,0.006,0.0039,0.0037,0.004,0.003,-0.0013,0.0043,0.0116,0.0056,0.0054,0.0053,0.0052,0,-0.0283,-0.0231,-0.0193,-0.0175,-0.011,-0.0093,-0.0066,-0.0016,0.0022,0.0077,0.0114,0.0153,0.0185,0.0172,0.0172,0.0124,0.0226,0.0157,0.0148,0.0149,0.0125,0.0121,0.0173,0.0173,0.0173,0.0173,0.0172,0,-0.0277,-0.0254,-0.0198,-0.0177,-0.013,-0.0093,-0.0044,-0.001,0.0057,0.0122,0.0139,0.0213,0.021,0.0265,0.0228,0.0252,0.027,0.0186,0.018,0.0147,0.0144,0.0094,0.0083,0.0176,0.0175,0.0175,0.0174,0,-0.0295,-0.0261,-0.0214,-0.0151,-0.0136,-0.0108,-0.0041,0.0008,0.006,0.015,0.017,0.0277,0.0353,0.0364,0.0388,0.034,0.0346,0.0333,0.0312,0.0302,0.0239,0.0231,0.0335,0.0336,0.0337,0.0338,0.0339,0,-0.0291,-0.0268,-0.0209,-0.0184,-0.0163,-0.0118,-0.0077,-0.0011,0.0052,0.0198,0.0258,0.0367,0.0463,0.0541,0.048,0.0457,0.0418,0.0395,0.0286,0.0276,0.0259,0.0249,0.024,0.0289,0.0289,0.029,0.029,0,-0.0277,-0.027,-0.0225,-0.0182,-0.0146,-0.0087,-0.0024,0.0031,0.0132,0.0246,0.0418,0.0511,0.0569,0.0576,0.0534,0.0491,0.0397,0.0395,0.0418,0.0243,0.0237,0.0219,0.021,0.0291,0.0291,0.0291,0.0291,0.0291,-0.0275,-0.0246,-0.0199,-0.0156,-0.0119,-0.005,0.001,0.0118,0.0257,0.0449,0.0521,0.0664,0.0609,0.0576,0.0518,0.0431,0.0414,0.0346,0.0344,0.0342,0.0311,0.0306,0.0369,0.0369,0.0369,0.0369,0.0369,0,-0.0245,-0.0214,-0.0168,-0.0105,-0.0055,-0.0054,0.006,0.0158,0.0344,0.0513,0.0676,0.0664,0.0651,0.0584,0.0436,0.0352,0.032,0.0336,0.0293,0.0292,0.0291,0.0255,0.03,0.03,0.0299,0.0299,0,0,-0.0222,-0.0163,-0.0129,-0.0046,-0.0025,0.0048,0.0111,0.029,0.0425,0.0642,0.0737,0.0804,0.0677,0.0559,0.045,0.0372,0.0352,0.0361,0.042,0.038,0.038,0.0298,0.0242,0,0,0,0,0]}],[{"header":{"parameterUnit":"m.s-1","parameterCategory":2,"la1":30.2991,"la2":30.254,"lo1":-89.0895,"lo2":-89.0444,"dy":0.0017,"dx":0.0017,"nx":28,"ny":28,"refTime":"2025-11-12T09:00:00:Z","depth":"4","parameterNumber":2,"parameterNumberName":"U-component_of_CURRENTS"},"data":[0,0,0,0,0,0,0,0,0,0,0,0,0,0,0,0,0,0,0,0,0,0,0,0,0,0,0,0,0,0,0,0,0,0,0,0,0,0,0,0,0,0,0,0,0,0,0,0,0,0,0,0,0,0,0,0,0,0,-0.0502,-0.0502,0,-0.0518,-0.0518,-0.0518,-0.0527,-0.0527,-0.0527,-0.0527,-0.0535,-0.0535,-0.0535,0,0,0,0,0,0,0,0,0,0,0,0,0,-0.0505,-0.0505,-0.0502,-0.0502,-0.0502,-0.0518,-0.0518,-0.0519,-0.0527,-0.0527,-0.0527,-0.0526,-0.0535,-0.0535,-0.0535,0,0,0,0,0,0,0,0,0,0,0,0,0,-0.0513,-0.0505,-0.0502,-0.0507,-0.0507,-0.0518,-0.0518,-0.0519,-0.0527,-0.0527,-0.0527,-0.0526,-0.0534,-0.0535,-0.0535,-0.0544,0,0,-0.0537,-0.0537,0,0,0,0,0,0,0,0,-0.0512,-0.0513,-0.0506,-0.0506,-0.0507,-0.0518,-0.0522,-0.0526,-0.0527,-0.0522,-0.0527,-0.0526,-0.0527,-0.0529,-0.0535,-0.0544,-0.0545,-0.0537,-0.0538,-0.0538,-0.0538,0,0,0,0,0,0,0,-0.0512,-0.0512,-0.051,-0.0506,-0.0506,-0.0517,-0.0518,-0.0523,-0.0527,-0.0522,-0.0522,-0.0521,-0.0528,-0.0534,-0.0535,-0.0545,-0.0537,-0.0538,-0.0538,-0.0538,-0.0478,-0.0476,0,0,0,0,0,0,-0.0504,-0.0512,-0.051,-0.051,-0.0507,-0.0517,-0.0518,-0.0517,-0.0527,-0.0528,-0.0521,-0.0521,-0.0534,-0.0535,-0.0535,-0.045,-0.0538,-0.0538,-0.0539,-0.048,-0.0477,-0.0475,0,0,0,0,0,0,-0.0504,-0.0504,-0.0509,-0.051,-0.0511,-0.0516,-0.0515,-0.0517,-0.0537,-0.0526,-0.0527,-0.0541,-0.0534,-0.0535,-0.0525,-0.0454,-0.0539,-0.0539,-0.0482,-0.0479,-0.0476,-0.034,0,0,0,0,0,0,-0.0505,-0.0504,-0.0511,-0.0509,-0.051,-0.0519,-0.0516,-0.0517,-0.0535,-0.0536,-0.0544,-0.0543,-0.0533,-0.0524,-0.0525,-0.0456,-0.054,-0.0484,-0.048,-0.0477,-0.0347,-0.0332,-0.032,0,0,0,0,0,-0.0505,-0.051,-0.0511,-0.0511,-0.0516,-0.0519,-0.0522,-0.0526,-0.0536,-0.0545,-0.0533,-0.0544,-0.0501,-0.0523,-0.0526,-0.0454,-0.0486,-0.0482,-0.0477,-0.0352,-0.0335,-0.0321,0,0,0,0,0,0,-0.0514,-0.0511,-0.0512,-0.0516,-0.052,-0.052,-0.0532,-0.0538,-0.054,-0.0543,-0.0536,-0.0534,-0.049,-0.0508,-0.0534,-0.0427,-0.0489,-0.0485,-0.0393,-0.0377,-0.0364,-0.0364,-0.054,0,0,0,0,0,-0.0519,-0.0524,-0.0521,-0.0526,-0.053,-0.0537,-0.0544,-0.0547,-0.0543,-0.0547,-0.052,-0.0502,-0.0472,-0.0458,-0.0442,-0.0404,-0.0486,-0.0356,-0.0343,-0.0331,-0.0333,-0.0426,-0.0423,-0.0461,-0.0461,-0.0461,0,0,-0.0523,-0.0524,-0.0526,-0.053,-0.0536,-0.0525,-0.0542,-0.0555,-0.052,-0.0546,-0.0482,-0.0465,-0.0457,-0.0388,-0.0369,-0.0395,-0.036,-0.0326,-0.0316,-0.0324,-0.0422,-0.0418,-0.0416,-0.0458,-0.0458,-0.0459,0,0,-0.0531,-0.0537,-0.0543,-0.0544,-0.0552,-0.0539,-0.0546,-0.0529,-0.0501,-0.0443,-0.0439,-0.04,-0.0336,-0.0312,-0.0296,-0.0218,-0.0294,-0.0188,-0.011,-0.0199,-0.0197,-0.0197,-0.0286,-0.0295,-0.0173,-0.0172,-0.0172,0,-0.0536,-0.0538,-0.0546,-0.0548,-0.0532,-0.0543,-0.0527,-0.0501,-0.0466,-0.0426,-0.0402,-0.0311,-0.0297,-0.0244,-0.0172,-0.0187,-0.0252,-0.0164,-0.0184,-0.0186,-0.0188,-0.0279,-0.0291,-0.0165,-0.0166,-0.0167,-0.0168,0,-0.0537,-0.0544,-0.0549,-0.0536,-0.0518,-0.0517,-0.047,-0.0427,-0.0368,-0.0326,-0.0241,-0.0209,-0.0155,-0.012,-0.0098,-0.0078,-0.0124,-0.0165,-0.0228,-0.0176,-0.0275,-0.0289,-0.0155,-0.0158,-0.016,-0.0162,0,0,-0.0529,-0.0546,-0.0548,-0.0535,-0.0511,-0.0489,-0.0416,-0.0347,-0.0307,-0.0216,-0.0161,-0.0043,-0.0027,-0.0011,0.0002,-0.0034,-0.007,-0.0069,-0.0077,-0.0162,-0.0266,-0.013,-0.0135,-0.0112,-0.0114,-0.0116,-0.0327,0,-0.0525,-0.053,-0.0518,-0.0484,-0.0471,-0.0429,-0.0354,-0.0288,-0.0219,-0.0164,-0.0115,-0.0064,0.0011,0.0037,0.0029,-0.007,-0.0102,-0.0009,-0.03,-0.0309,-0.0199,-0.0144,-0.0121,-0.0338,-0.0342,-0.0344,-0.0346,0,-0.0513,-0.0517,-0.0497,-0.0446,-0.0432,-0.038,-0.0271,-0.0216,-0.015,-0.0102,-0.0042,-0.0032,-0.0017,0.0004,-0.0106,-0.0047,-0.0118,-0.0198,-0.021,-0.0143,-0.0198,-0.0404,-0.0374,-0.0372,-0.037,-0.0368,-0.0366,0,-0.0498,-0.0483,-0.046,-0.045,-0.0398,-0.0327,-0.0261,-0.0175,-0.0153,-0.0087,-0.0099,-0.0062,-0.0098,-0.0157,-0.0227,-0.0181,-0.0417,-0.0407,-0.0362,-0.0357,-0.0486,-0.0485,-0.0508,-0.0508,-0.0507,-0.0507,-0.0506,0,-0.0479,-0.0467,-0.0442,-0.0439,-0.0367,-0.03,-0.0231,-0.0161,-0.0136,-0.0126,-0.0072,-0.0089,-0.0142,-0.0251,-0.0288,-0.0358,-0.0472,-0.0338,-0.0389,-0.042,-0.0409,-0.0497,-0.0493,-0.0515,-0.0513,-0.0512,-0.051,0,-0.0472,-0.0472,-0.0464,-0.0409,-0.0373,-0.0308,-0.0246,-0.0225,-0.0177,-0.0186,-0.0179,-0.0187,-0.0229,-0.0316,-0.0471,-0.0457,-0.0549,-0.0561,-0.0605,-0.066,-0.0414,-0.0401,-0.0502,-0.0499,-0.0496,-0.0494,-0.0492,0,-0.0468,-0.0471,-0.0469,-0.0454,-0.0419,-0.0339,-0.0305,-0.024,-0.0234,-0.0221,-0.0243,-0.0279,-0.0256,-0.0406,-0.0448,-0.0536,-0.0515,-0.0612,-0.0432,-0.0367,-0.0409,-0.04,-0.039,-0.0487,-0.0487,-0.0486,-0.0485,0,-0.0472,-0.0496,-0.0506,-0.0491,-0.0446,-0.0423,-0.0349,-0.0355,-0.0285,-0.0306,-0.0262,-0.0244,-0.0296,-0.0318,-0.0411,-0.0462,-0.0562,-0.0581,-0.0585,-0.0416,-0.0351,-0.0393,-0.0387,-0.0475,-0.0477,-0.0478,-0.0478,0,-0.0485,-0.0495,-0.0525,-0.0487,-0.0483,-0.0442,-0.0415,-0.0361,-0.0343,-0.0292,-0.0286,-0.0268,-0.0286,-0.0284,-0.0368,-0.0387,-0.0326,-0.0347,-0.0362,-0.0373,-0.0214,-0.0105,-0.0189,0,0,0,0,0,-0.0463,-0.0467,-0.0493,-0.0454,-0.0482,-0.0452,-0.0423,-0.0403,-0.0355,-0.0312,-0.0274,-0.0262,-0.0231,-0.025,-0.0229,-0.0291,-0.0358,-0.027,-0.0397,-0.0421,-0.0432,-0.0246,0,0,0,0,0,0,-0.0438,-0.0468,-0.0489,-0.0455,-0.0429,-0.0419,-0.0398,-0.0372,-0.0329,-0.0286,-0.0277,-0.0249,-0.0246,-0.0231,-0.0224,-0.0229,-0.0303,-0.0267,-0.0266,-0.0414,-0.0425,-0.0434,-0.0246,0,0,0,0,0]},{"header":{"parameterUnit":"m.s-1","parameterCategory":2,"la1":30.2991,"la2":30.254,"lo1":-89.0895,"lo2":-89.0444,"dy":0.0017,"dx":0.0017,"nx":28,"ny":28,"refTime":"2025-11-12T09:00:00:Z","depth":"4","parameterNumber":3,"parameterNumberName":"V-component_of_CURRENTS"},"data":[0,0,0,0,0,0,0,0,0,0,0,0,0,0,0,0,0,0,0,0,0,0,0,0,0,0,0,0,0,0,0,0,0,0,0,0,0,0,0,0,0,0,0,0,0,0,0,0,0,0,0,0,0,0,0,0,0,0,0.0315,0.0315,0,0.0329,0.033,0.033,0.0371,0.0372,0.0373,0.0374,0.038,0.0379,0.0379,0,0,0,0,0,0,0,0,0,0,0,0,0,0.0326,0.0326,0.0315,0.0315,0.0316,0.0329,0.033,0.033,0.0371,0.0372,0.0373,0.0375,0.038,0.038,0.0379,0,0,0,0,0,0,0,0,0,0,0,0,0,0.0328,0.0326,0.0315,0.0338,0.0341,0.0329,0.033,0.033,0.0371,0.0372,0.0374,0.0375,0.0381,0.038,0.0379,0.0343,0,0,0.0375,0.0375,0,0,0,0,0,0,0,0,0.0328,0.0328,0.0335,0.0337,0.0339,0.0351,0.0336,0.0334,0.037,0.0359,0.0374,0.0376,0.0369,0.0369,0.0368,0.0343,0.0343,0.0375,0.0374,0.0374,0.0374,0,0,0,0,0,0,0,0.0328,0.0328,0.032,0.0335,0.0338,0.0349,0.0351,0.0336,0.0355,0.036,0.0363,0.0365,0.037,0.0368,0.0368,0.0343,0.0375,0.0374,0.0373,0.0373,0.0261,0.0259,0,0,0,0,0,0,0.0326,0.0327,0.032,0.0321,0.0338,0.0348,0.035,0.0345,0.0355,0.0359,0.0364,0.0367,0.037,0.0369,0.0368,0.0344,0.0374,0.0373,0.0372,0.0263,0.0261,0.0258,0,0,0,0,0,0,0.0326,0.0324,0.0319,0.0325,0.0326,0.0346,0.034,0.0345,0.0394,0.0359,0.0362,0.0415,0.0371,0.037,0.0363,0.0344,0.0372,0.0371,0.0266,0.0263,0.0259,0.0284,0,0,0,0,0,0,0.0326,0.0324,0.0329,0.0325,0.0325,0.0325,0.0339,0.0344,0.039,0.0396,0.0402,0.0401,0.0372,0.0364,0.0361,0.0343,0.0371,0.0269,0.0265,0.0261,0.0286,0.0282,0.0278,0,0,0,0,0,0.0326,0.0326,0.0329,0.0329,0.0328,0.0325,0.0327,0.0346,0.0392,0.0401,0.0399,0.0404,0.0333,0.0362,0.036,0.0341,0.0271,0.0266,0.0261,0.0288,0.0283,0.0279,0,0,0,0,0,0,0.0336,0.033,0.0334,0.0333,0.0335,0.0333,0.0344,0.0378,0.0388,0.0417,0.0394,0.039,0.0363,0.0347,0.038,0.0287,0.0295,0.0289,0.0317,0.0312,0.0308,0.0334,0.037,0,0,0,0,0,0.0337,0.0338,0.0333,0.0335,0.0336,0.0356,0.0367,0.0397,0.0401,0.0413,0.0407,0.0384,0.0329,0.0326,0.0279,0.0257,0.0251,0.0231,0.0227,0.0224,0.0238,0.0163,0.0155,0.0241,0.0241,0.0241,0,0,0.034,0.034,0.034,0.0338,0.0342,0.0346,0.0367,0.0407,0.0415,0.0408,0.0418,0.038,0.0317,0.0265,0.0252,0.0263,0.0206,0.0218,0.0217,0.0232,0.0157,0.0149,0.0142,0.0238,0.0238,0.0239,0,0,0.0344,0.0347,0.0348,0.0349,0.0373,0.038,0.0406,0.0428,0.0439,0.0443,0.041,0.0369,0.033,0.0255,0.0215,0.0166,0.0181,0.0153,0.017,0.0097,0.0091,0.0085,0.0121,0.0117,0.0159,0.0159,0.0159,0,0.0351,0.0358,0.035,0.0351,0.0362,0.0401,0.042,0.0417,0.0439,0.0427,0.0452,0.0343,0.0309,0.0203,0.0184,0.016,0.0164,0.0203,0.0096,0.009,0.0083,0.0121,0.0117,0.0159,0.0159,0.0159,0.0159,0,0.0349,0.0367,0.037,0.0378,0.0378,0.0415,0.0407,0.042,0.0455,0.0443,0.0382,0.032,0.026,0.0219,0.02,0.0115,0.0153,0.0099,0.0123,0.0077,0.0119,0.0115,0.016,0.016,0.016,0.016,0,0,0.0342,0.0369,0.0373,0.0391,0.0417,0.0419,0.0414,0.0403,0.0395,0.039,0.0347,0.0255,0.0254,0.0206,0.0157,0.0099,0.0079,0.0104,0.01,0.0169,0.0009,0.0017,0.0014,0.0011,0.0009,0.0008,0.0079,0,0.0358,0.0378,0.0387,0.0417,0.043,0.0443,0.0419,0.0409,0.0395,0.0351,0.0282,0.0231,0.0235,0.0218,0.0158,0.0067,0.006,0.0071,0.0019,0.0019,0.0051,0.0003,0.0001,0.0076,0.0075,0.0075,0.0074,0,0.0355,0.0375,0.0422,0.0439,0.0443,0.0483,0.0463,0.0446,0.0372,0.0351,0.0298,0.0249,0.0171,0.0175,0.007,0.0085,0.0082,0.003,0.0029,0.0023,0.0015,0.0111,0.0066,0.0067,0.0068,0.0068,0.0069,0,0.0356,0.0393,0.0449,0.046,0.0482,0.0521,0.0536,0.048,0.0423,0.0377,0.0332,0.0244,0.0197,0.014,0.0095,0.0083,-0.0011,-0.0057,-0.0034,-0.0029,-0.006,-0.0055,-0.0099,-0.0099,-0.0099,-0.0099,-0.0099,0,0.0368,0.04,0.0484,0.0516,0.0567,0.0567,0.0582,0.0567,0.0483,0.0393,0.0369,0.0263,0.0181,0.0114,0.0093,0.0036,0.0006,-0.0021,-0.0037,-0.0044,-0.0039,-0.0058,-0.0055,-0.0096,-0.0097,-0.0097,-0.0098,0,0.0359,0.0415,0.0478,0.0555,0.059,0.0633,0.0632,0.058,0.0547,0.0427,0.0415,0.0271,0.0187,0.0146,0.0039,0.003,-0.0026,-0.0016,0.0068,0.0055,0.0023,0.0027,-0.0009,-0.0009,-0.0009,-0.0008,-0.0008,0,0.0349,0.0396,0.0521,0.0561,0.0635,0.0686,0.068,0.0641,0.0548,0.04,0.0307,0.0224,0.0146,0.0059,-0.0009,0.0,-0.0009,0.0032,-0.0049,0.0032,0.002,0.0024,0.0027,-0.0008,-0.0008,-0.0008,-0.0008,0,0.0323,0.0407,0.0459,0.0561,0.0625,0.0616,0.0615,0.054,0.0435,0.0401,0.0242,0.0187,0.0087,0.0014,0.0065,0.0038,0.0015,0.0033,0.0031,-0.0045,0.0033,0.0022,0.0025,-0.0007,-0.0007,-0.0007,-0.0007,0,0.0307,0.0335,0.0431,0.0525,0.0574,0.0541,0.0542,0.0452,0.0374,0.0236,0.0174,0.0108,0.0062,0.003,0.0026,0.005,0.0017,0.0036,0.0033,0.0032,-0.0002,0.01,0.0068,0,0,0,0,0,0.0272,0.0298,0.0358,0.0439,0.0488,0.0525,0.0458,0.0419,0.0338,0.0247,0.0218,0.0146,0.01,0.0033,0.0057,-0.002,-0.0001,0.0005,0.0016,-0.0003,-0.0004,-0.0054,0,0,0,0,0,0,0.0237,0.0286,0.0331,0.0366,0.0411,0.0414,0.0386,0.0327,0.026,0.0211,0.0184,0.019,0.0136,0.0132,0.0081,0.0071,0.0084,-0.0013,-0.0013,-0.0002,-0.0003,-0.0004,-0.0056,0,0,0,0,0]}]]